[[{"header":{"parameterUnit":"m.s-1","parameterCategory":1,"la1":30.2991,"la2":30.254,"lo1":-89.0895,"lo2":-89.0444,"dy":0.0017,"dx":0.0017,"nx":28,"ny":28,"refTime":"2023-06-26T21:00:00:Z","depth":0,"parameterNumber":2,"parameterNumberName":"U-component_of_WINDS"},"data":[0,0,0,0,0,0,0,0,0,0,0,0,0,0,0,0,0,0,0,0,0,0,0,0,0,0,0,0,0,0,0,0,0,0,0,0,0,0,0,0,0,0,0,0,0,0,0,0,0,0,0,0,0,0,0,0,0,0,4.6549,4.6551,0,4.6695,4.6697,4.6699,4.6638,4.6635,4.6632,4.6628,4.678,4.6788,4.6795,0,0,0,0,0,0,0,0,0,0,0,0,0,4.622,4.6226,4.6549,4.6551,4.6552,4.6695,4.6697,4.6699,4.6639,4.6635,4.6631,4.6627,4.6778,4.6787,4.6795,0,0,0,0,0,0,0,0,0,0,0,0,0,4.6364,4.6228,4.6548,4.654,4.654,4.6695,4.6697,4.6699,4.664,4.6635,4.663,4.6625,4.6775,4.6786,4.6797,4.6969,0,0,4.683,4.6835,0,0,0,0,0,0,0,0,4.6356,4.6376,4.6539,4.6541,4.6542,4.6643,4.6637,4.679,4.6641,4.6602,4.6628,4.6622,4.6739,4.6753,4.6792,4.6976,4.6982,4.6831,4.6838,4.6842,4.6845,0,0,0,0,0,0,0,4.6346,4.637,4.6607,4.6542,4.6543,4.6529,4.6544,4.6665,4.6698,4.6605,4.6601,4.6619,4.6739,4.6781,4.6795,4.6985,4.6831,4.684,4.6847,4.6851,4.7319,4.7325,0,0,0,0,0,0,4.6336,4.6362,4.6602,4.6611,4.6434,4.6539,4.6556,4.6616,4.6697,4.6704,4.6624,4.6616,4.6765,4.6782,4.68,4.7009,4.6842,4.6853,4.6859,4.7313,4.732,4.7327,0,0,0,0,0,0,4.6329,4.6358,4.6596,4.6486,4.6515,4.6551,4.6619,4.6622,4.6664,4.6711,4.6716,4.6661,4.6762,4.6785,4.6927,4.7013,4.6857,4.6867,4.7306,4.7316,4.7324,4.7426,0,0,0,0,0,0,4.632,4.6356,4.6421,4.6487,4.6521,4.6721,4.6624,4.6628,4.6683,4.6674,4.6747,4.6754,4.6759,4.6911,4.6938,4.7025,4.6876,4.7299,4.7311,4.7321,4.7415,4.7437,4.7456,0,0,0,0,0,4.6308,4.6444,4.6425,4.6454,4.6603,4.6726,4.6745,4.6748,4.669,4.6756,4.6786,4.6752,4.6999,4.6927,4.6956,4.7048,4.7294,4.7307,4.732,4.7406,4.7433,4.7456,0,0,0,0,0,0,4.6387,4.6453,4.6432,4.6593,4.6654,4.6715,4.6799,4.6776,4.6855,4.6844,4.6844,4.6861,4.701,4.7042,4.6961,4.7219,4.7138,4.7157,4.7193,4.7219,4.7239,4.7229,4.6885,0,0,0,0,0,4.6423,4.6517,4.6569,4.6706,4.6738,4.6764,4.6817,4.6814,4.6878,4.6904,4.6944,4.7008,4.71,4.7161,4.7248,4.7419,4.7435,4.7497,4.7517,4.7534,4.7552,4.7646,4.7675,4.737,4.737,4.737,0,0,4.6499,4.6547,4.6606,4.6724,4.6771,4.6869,4.6786,4.6893,4.6966,4.692,4.7058,4.709,4.7161,4.732,4.7391,4.7352,4.7639,4.755,4.7563,4.7572,4.7663,4.7692,4.7717,4.7379,4.7377,4.7376,0,0,4.6688,4.6732,4.6853,4.6902,4.6974,4.699,4.7019,4.7084,4.7103,4.7241,4.7209,4.7296,4.7454,4.7507,4.7555,4.7764,4.7736,4.7792,4.79,4.7992,4.8016,4.8038,4.8114,4.8142,4.7809,4.7809,4.7809,0,4.6774,4.692,4.6918,4.7028,4.7081,4.7043,4.7166,4.7213,4.731,4.7349,4.7302,4.7501,4.7546,4.7717,4.7768,4.7807,4.7842,4.7785,4.8013,4.8034,4.8054,4.8127,4.8156,4.7816,4.7815,4.7814,4.7814,0,4.7023,4.7124,4.7212,4.7307,4.737,4.7486,4.7503,4.7567,4.7558,4.7579,4.7721,4.7774,4.7872,4.7911,4.7903,4.8082,4.8056,4.8011,4.7929,4.809,4.8159,4.8186,4.7825,4.7823,4.7821,4.7819,0,0,4.7268,4.7359,4.7392,4.7435,4.7512,4.7591,4.7705,4.78,4.7856,4.7924,4.8021,4.8156,4.8116,4.817,4.8167,4.8248,4.8413,4.8194,4.8196,4.8235,4.8615,4.865,4.8682,4.8394,4.8399,4.8403,4.861,0,4.7464,4.7664,4.7666,4.785,4.7945,4.791,4.8009,4.8068,4.8091,4.8175,4.82,4.8297,4.8235,4.8267,4.8346,4.8376,4.849,4.8361,4.8486,4.8491,4.8472,4.8718,4.8755,4.8948,4.8637,4.8641,4.8645,0,4.7721,4.7797,4.7991,4.8055,4.8095,4.8184,4.8272,4.8353,4.8419,4.8429,4.849,4.8476,4.8593,4.8506,4.8669,4.8582,4.8633,4.8655,4.8663,4.8677,4.8579,4.8741,4.9009,4.9039,4.8687,4.8683,4.868,0,4.7883,4.8034,4.817,4.8208,4.8285,4.8349,4.8384,4.8445,4.8502,4.8579,4.8616,4.8706,4.8756,4.8826,4.8837,4.8772,4.9002,4.8914,4.9016,4.9016,4.9067,4.9065,4.935,4.9097,4.9096,4.9096,4.9095,0,4.8104,4.8225,4.8244,4.8328,4.8463,4.8463,4.8596,4.8626,4.8681,4.8771,4.8745,4.883,4.8838,4.8926,4.8935,4.907,4.9092,4.9105,4.9107,4.9109,4.9108,4.9144,4.9132,4.9103,4.9102,4.91,4.9099,0,4.8309,4.8326,4.8473,4.8534,4.8552,4.8648,4.8701,4.8782,4.8801,4.8916,4.8942,4.8974,4.9077,4.9093,4.9214,4.922,4.9382,4.9368,4.936,4.9359,4.946,4.9451,4.9781,4.9825,4.9541,4.9543,4.9545,0,4.845,4.8542,4.8613,4.8671,4.8709,4.8803,4.8862,4.8865,4.8927,4.9009,4.9081,4.918,4.926,4.9426,4.946,4.9553,4.9543,4.9652,4.9557,4.9556,4.9547,4.9542,4.9552,4.9671,4.9674,4.9676,4.9678,0,4.87,4.8704,4.8788,4.8877,4.8947,4.9017,4.9083,4.9132,4.9144,4.9216,4.932,4.9382,4.9504,4.9604,4.9696,4.9733,4.971,4.9708,4.9736,4.9741,4.9733,4.9741,4.9413,4.9701,4.9699,4.9697,4.9696,4.9695,4.8879,4.896,4.9022,4.9118,4.9167,4.923,4.9309,4.9338,4.9425,4.9524,4.9521,4.9636,4.97,4.9821,4.9864,4.9955,4.992,4.9961,4.9972,4.9982,4.9993,4.9717,4.9971,4.997,4.997,4.9969,4.9969,0,4.9129,4.9167,4.9255,4.9348,4.9423,4.9392,4.9463,4.9529,4.963,4.9691,4.977,4.9891,4.9987,5.0029,5.0124,5.0189,5.0181,5.0214,5.0211,5.022,5.0018,4.9985,5.022,5.022,5.022,5.0219,5.0219,5.0219,4.9269,4.9404,4.9415,4.9576,4.9613,4.9725,4.9768,4.9826,4.9875,5.001,5.009,5.0116,5.017,5.0269,5.0357,5.0367,5.0404,5.0443,5.0448,5.0259,5.0234,5.021,5.0179,5.0451,5.0451,5.0643,5.0645,5.0646]},{"header":{"parameterUnit":"m.s-1","parameterCategory":1,"la1":30.2991,"la2":30.254,"lo1":-89.0895,"lo2":-89.0444,"dy":0.0017,"dx":0.0017,"nx":28,"ny":28,"refTime":"2023-06-26T21:00:00:Z","depth":0,"parameterNumber":3,"parameterNumberName":"V-component_of_WINDS"},"data":[0,0,0,0,0,0,0,0,0,0,0,0,0,0,0,0,0,0,0,0,0,0,0,0,0,0,0,0,0,0,0,0,0,0,0,0,0,0,0,0,0,0,0,0,0,0,0,0,0,0,0,0,0,0,0,0,0,0,-0.0928,-0.0926,0,-0.0771,-0.077,-0.0768,-0.0723,-0.0724,-0.0725,-0.0725,-0.0562,-0.0557,-0.0551,0,0,0,0,0,0,0,0,0,0,0,0,0,-0.1185,-0.1181,-0.0928,-0.0926,-0.0924,-0.0772,-0.077,-0.0767,-0.0723,-0.0724,-0.0725,-0.0726,-0.0563,-0.0557,-0.0551,0,0,0,0,0,0,0,0,0,0,0,0,0,-0.1056,-0.1179,-0.0928,-0.0883,-0.0878,-0.0772,-0.0769,-0.0767,-0.0723,-0.0724,-0.0725,-0.0726,-0.0565,-0.0558,-0.055,-0.0476,0,0,-0.0526,-0.0523,0,0,0,0,0,0,0,0,-0.1063,-0.1046,-0.0892,-0.0886,-0.088,-0.0768,-0.08,-0.0669,-0.0722,-0.0781,-0.0726,-0.0727,-0.0629,-0.0616,-0.0584,-0.0469,-0.0462,-0.0526,-0.0521,-0.0518,-0.0516,0,0,0,0,0,0,0,-0.1072,-0.1053,-0.0866,-0.089,-0.0882,-0.087,-0.0853,-0.0775,-0.07,-0.0776,-0.0773,-0.0755,-0.0626,-0.0591,-0.058,-0.0459,-0.0526,-0.0519,-0.0514,-0.0511,-0.0279,-0.0277,0,0,0,0,0,0,-0.1089,-0.106,-0.0871,-0.0861,-0.0977,-0.0865,-0.0846,-0.0803,-0.07,-0.0686,-0.0754,-0.0754,-0.0604,-0.0589,-0.0574,-0.0482,-0.0518,-0.0511,-0.0506,-0.028,-0.0278,-0.0277,0,0,0,0,0,0,-0.1095,-0.1073,-0.0877,-0.096,-0.0934,-0.0859,-0.0811,-0.0799,-0.0764,-0.0684,-0.067,-0.0733,-0.0604,-0.0585,-0.0502,-0.0476,-0.0507,-0.05,-0.0282,-0.0279,-0.0277,-0.0298,0,0,0,0,0,0,-0.1102,-0.1075,-0.1046,-0.0959,-0.093,-0.0808,-0.0809,-0.0795,-0.0751,-0.0749,-0.066,-0.0646,-0.0604,-0.0514,-0.0494,-0.0466,-0.0494,-0.0284,-0.0281,-0.0278,-0.0299,-0.0297,-0.0295,0,0,0,0,0,-0.1112,-0.1057,-0.1045,-0.1023,-0.0893,-0.0807,-0.079,-0.0743,-0.075,-0.072,-0.0669,-0.0649,-0.0482,-0.0506,-0.0483,-0.0452,-0.0285,-0.0282,-0.0278,-0.03,-0.0297,-0.0295,0,0,0,0,0,0,-0.1141,-0.1045,-0.103,-0.0946,-0.0886,-0.08,-0.0761,-0.0741,-0.0675,-0.0676,-0.0619,-0.06,-0.0521,-0.0478,-0.0506,-0.0377,-0.0383,-0.0375,-0.0408,-0.0404,-0.0402,-0.0414,-0.0487,0,0,0,0,0,-0.1138,-0.1077,-0.0996,-0.0929,-0.09,-0.0836,-0.0797,-0.0766,-0.07,-0.0674,-0.0616,-0.0552,-0.0485,-0.0442,-0.0376,-0.0293,-0.0274,-0.0261,-0.0259,-0.0257,-0.0251,-0.0206,-0.0199,-0.0265,-0.0265,-0.0265,0,0,-0.113,-0.107,-0.1035,-0.0934,-0.0883,-0.0821,-0.0814,-0.0748,-0.0702,-0.0663,-0.0582,-0.0538,-0.0463,-0.0381,-0.0341,-0.0342,-0.0229,-0.0253,-0.0252,-0.0246,-0.0201,-0.0195,-0.019,-0.0263,-0.0263,-0.0264,0,0,-0.1085,-0.1033,-0.0973,-0.0923,-0.0847,-0.0806,-0.0792,-0.0709,-0.0679,-0.0597,-0.0568,-0.0511,-0.0397,-0.0345,-0.0304,-0.0242,-0.0222,-0.0222,-0.021,-0.0166,-0.0161,-0.0156,-0.0135,-0.0128,-0.0216,-0.0216,-0.0216,0,-0.1084,-0.0991,-0.0944,-0.0881,-0.0838,-0.0802,-0.0741,-0.0695,-0.06,-0.0571,-0.0574,-0.0432,-0.0378,-0.0284,-0.027,-0.0237,-0.022,-0.0232,-0.0166,-0.016,-0.0155,-0.0135,-0.0127,-0.0217,-0.0217,-0.0217,-0.0217,0,-0.0995,-0.0931,-0.0891,-0.0804,-0.0756,-0.0694,-0.0638,-0.0595,-0.057,-0.0528,-0.0446,-0.0382,-0.0303,-0.0278,-0.0251,-0.0181,-0.0184,-0.0177,-0.0182,-0.015,-0.013,-0.0122,-0.0218,-0.0217,-0.0217,-0.0217,0,0,-0.0961,-0.0852,-0.0838,-0.0799,-0.0714,-0.0663,-0.06,-0.0525,-0.049,-0.0426,-0.0372,-0.0278,-0.0272,-0.0225,-0.0193,-0.0155,-0.0112,-0.0152,-0.015,-0.0148,-0.0032,-0.0038,-0.003,-0.0099,-0.0097,-0.0096,-0.0039,0,-0.0906,-0.0793,-0.0751,-0.0658,-0.0599,-0.0566,-0.0511,-0.0453,-0.0413,-0.0356,-0.0311,-0.0246,-0.0242,-0.0214,-0.0175,-0.0126,-0.0088,-0.0129,-0.0048,-0.0045,-0.0068,-0.0019,-0.0024,0.0027,-0.003,-0.0029,-0.0028,0,-0.0826,-0.0764,-0.0667,-0.0592,-0.0565,-0.0517,-0.0446,-0.0392,-0.0326,-0.0299,-0.0249,-0.022,-0.0153,-0.0163,-0.007,-0.0099,-0.0064,-0.0035,-0.0031,-0.0022,-0.0035,-0.0008,0.0044,0.0052,-0.0015,-0.0016,-0.0017,0,-0.0813,-0.0705,-0.0634,-0.0601,-0.0511,-0.0478,-0.0439,-0.0374,-0.0333,-0.027,-0.0243,-0.0173,-0.0135,-0.0081,-0.0034,-0.0046,0.0054,0.0048,0.0078,0.0076,0.0098,0.0096,0.0156,0.0121,0.0121,0.0121,0.0121,0,-0.0755,-0.0697,-0.0627,-0.0583,-0.0517,-0.0469,-0.0405,-0.0364,-0.0307,-0.0254,-0.0221,-0.0172,-0.0112,-0.0056,-0.0018,0.0052,0.007,0.0093,0.0102,0.009,0.0087,0.0114,0.0112,0.0123,0.0122,0.0122,0.0122,0,-0.0729,-0.068,-0.06,-0.0523,-0.0502,-0.0457,-0.039,-0.0346,-0.0306,-0.0239,-0.0221,-0.0157,-0.0089,-0.0037,0.0053,0.0078,0.0152,0.0162,0.0129,0.0134,0.016,0.0157,0.0241,0.0254,0.0209,0.021,0.021,0,-0.0696,-0.0651,-0.057,-0.0533,-0.0495,-0.0435,-0.0393,-0.0345,-0.0302,-0.0226,-0.0191,-0.0121,-0.0063,0.0045,0.01,0.0167,0.0179,0.0204,0.019,0.0175,0.0179,0.0175,0.0179,0.0206,0.0206,0.0206,0.0206,0,-0.0642,-0.0621,-0.0563,-0.0497,-0.0448,-0.0393,-0.0337,-0.0309,-0.025,-0.0205,-0.0136,-0.0091,-0.0002,0.0067,0.014,0.0181,0.0203,0.021,0.022,0.0208,0.0187,0.0198,0.0133,0.0208,0.0208,0.0208,0.0208,0.0208,-0.0612,-0.0571,-0.0509,-0.0445,-0.0399,-0.0348,-0.0304,-0.0259,-0.0201,-0.0126,-0.0101,-0.003,0.0033,0.0133,0.0174,0.023,0.0231,0.0246,0.025,0.0253,0.0251,0.0177,0.0244,0.0244,0.0244,0.0244,0.0244,0,-0.0557,-0.0516,-0.0459,-0.0383,-0.0334,-0.0319,-0.0258,-0.0217,-0.0156,-0.0099,-0.0043,0.0035,0.0101,0.016,0.0229,0.0262,0.0274,0.0279,0.0277,0.0285,0.0248,0.0231,0.0268,0.0268,0.0268,0.0268,0.0268,0.0268,-0.0523,-0.0454,-0.0426,-0.0334,-0.0293,-0.0225,-0.0191,-0.0144,-0.0099,-0.0014,0.004,0.0077,0.0135,0.0207,0.0269,0.0284,0.0308,0.031,0.0328,0.0291,0.0288,0.0285,0.027,0.0314,0.0314,0.0361,0.0361,0.0362]}]]